Weather History for KMUO - November, 2013

Change the Weather History Date:

Monday, November 11, 2013

  Actual Average Record
Temperature  
Mean Temperature 41 °F 40 °F  
Max Temperature 55 °F 51 °F 72 °F (1934)
Min Temperature 27 °F 29 °F 3 °F (1916)
Degree Days  
Heating Degree Days 24 24  
Month to date heating degree days 252 242  
Cooling Degree Days 0 0  
Month to date cooling degree days 0 0  
Moisture  
Dew Point 31 °F    
Average Humidity 76    
Maximum Humidity 99    
Minimum Humidity 41    
Precipitation  
Precipitation 0.00 in 0.05 in 0.55 in (1960)
Month to date precipitation 0.04 0.42  
Sea Level Pressure  
Sea Level Pressure 30.32 in    
Wind  
Wind Speed 4 mph (East)    
Max Wind Speed 8 mph    
Max Gust Speed -    
Visibility 10 miles    
Events      
T = Trace of Precipitation, MM = Missing Value Source: NWS Daily Summary

Daily Weather History Graph

Daily Weather History Graph

Search for Another Location

Airport or City:

Trip Planner

Search our weather history database for the weather conditions in past years. The results will help you decide how hot, cold, wet, or windy it might be!

Date:

Astronomy

Nov. 11, 2013 Rise Set
Actual Time 7:31 AM MST 5:23 PM MST
Civil Twilight 7:00 AM MST 5:53 PM MST
Nautical Twilight 6:26 AM MST 6:27 PM MST
Astronomical Twilight 5:53 AM MST 7:01 PM MST
Moon 2:14 PM MST (11/11) 1:11 AM MST (11/11)
Length of Visible Light 10h 52m
Length of Day
9h 51m
Waxing Gibbous, 67% of the Moon is Illuminated
Nov 11
Waxing Gibbous
Nov 17
Full
Nov 25
Last Quarter
Dec 2
New
Dec 9
First Quarter

Hourly Weather History & Observations

Time (MST) Temp. Windchill Dew Point Humidity Pressure Visibility Wind Dir Wind Speed Gust Speed Precip Events Conditions
12:58 AM 34.0 °F - 33.8 °F 99% 30.23 in 10.0 mi North 2.3 mph - N/A   Mostly Cloudy
1:58 AM 32.9 °F 27.5 °F 32.5 °F 99% 30.22 in 10.0 mi ENE 5.8 mph - N/A   Clear
2:58 AM 31.1 °F 25.4 °F 30.9 °F 99% 30.22 in 10.0 mi East 5.8 mph - N/A   Clear
3:58 AM 29.1 °F - 28.8 °F 99% 30.24 in 10.0 mi ENE 1.2 mph - N/A   Clear
4:58 AM 28.9 °F 22.8 °F 28.8 °F 99% 30.27 in 10.0 mi ENE 5.8 mph - N/A   Clear
5:58 AM 30.7 °F 24.9 °F 30.4 °F 99% 30.29 in 10.0 mi East 5.8 mph - N/A   Clear
6:58 AM 28.9 °F 23.9 °F 28.8 °F 99% 30.31 in 10.0 mi East 4.6 mph - N/A   Clear
7:58 AM 27.1 °F 21.8 °F 26.8 °F 99% 30.34 in 10.0 mi East 4.6 mph - N/A   Clear
8:58 AM 35.2 °F 29.5 °F 32.5 °F 90% 30.35 in 10.0 mi East 6.9 mph - N/A   Clear
9:58 AM 41.9 °F 37.5 °F 32.5 °F 69% 30.34 in 10.0 mi East 6.9 mph - N/A   Clear
10:58 AM 46.2 °F 45.0 °F 31.8 °F 57% 30.35 in 10.0 mi East 3.5 mph - N/A   Clear
11:58 AM 49.6 °F - 32.0 °F 51% 30.35 in 10.0 mi Variable 2.3 mph - N/A   Clear
12:58 PM 53.6 °F - 30.4 °F 41% 30.32 in 10.0 mi East 5.8 mph - N/A   Partly Cloudy
1:58 PM 54.0 °F - 32.7 °F 45% 30.32 in 10.0 mi SW 5.8 mph - N/A   Partly Cloudy
2:58 PM 54.5 °F - 32.2 °F 43% 30.32 in 10.0 mi West 4.6 mph - N/A   Clear
3:58 PM 53.6 °F - 33.4 °F 46% 30.33 in 10.0 mi West 5.8 mph - N/A   Clear
4:58 PM 53.1 °F - 33.6 °F 48% 30.32 in 10.0 mi West 2.3 mph - N/A   Clear
5:58 PM 47.8 °F - 33.1 °F 57% 30.32 in 10.0 mi Calm Calm - N/A   Clear
6:59 PM 40.1 °F - 30.9 °F 70% 30.35 in 10.0 mi Calm Calm - N/A   Clear
7:58 PM 36.5 °F 32.7 °F 31.5 °F 82% 30.37 in 10.0 mi ENE 4.6 mph - N/A   Clear
8:58 PM 36.9 °F 33.1 °F 30.7 °F 79% 30.35 in 10.0 mi East 4.6 mph - N/A   Clear
9:58 PM 34.7 °F 30.6 °F 30.2 °F 84% 30.36 in 10.0 mi East 4.6 mph - N/A   Clear
10:58 PM 33.3 °F 26.4 °F 30.7 °F 90% 30.37 in 10.0 mi East 8.1 mph - N/A   Clear
11:58 PM 34.0 °F 27.2 °F 31.6 °F 91% 30.36 in 10.0 mi East 8.1 mph - N/A   Clear